| time (UTC) | temp F | wind direction | speed knots | gust knots | rain 1hr in | rain 24hr in | rain mn in | humidity % | barometer mb |
| 20260507183537 | 52 | 31 | 0.9 | 4.3 | 0.06 | 1.29 | 1.29 | 96 | 1010.9 |
| 20260507183508 | 52 | 30 | 0.9 | 4.3 | 0.06 | 1.29 | 1.29 | 95 | 1010.5 |
| 20260507183044 | 52 | 32 | 0.0 | 3.5 | 0.07 | 1.29 | 1.29 | 95 | 1011.1 |
| 20260507183003 | 52 | 35 | 0.9 | 4.3 | 0.07 | 1.29 | 1.29 | 95 | 1010.7 |
| 20260507182536 | 52 | 322 | 0.0 | 4.3 | 0.08 | 1.29 | 1.29 | 96 | 1011.0 |
| 20260507182505 | 52 | 353 | 0.0 | 4.3 | 0.08 | 1.29 | 1.29 | 96 | 1010.6 |
| 20260507182037 | 52 | 36 | 1.7 | 7.8 | 0.08 | 1.29 | 1.29 | 96 | 1010.5 |
| 20260507182011 | 52 | 97 | 1.7 | 7.8 | 0.08 | 1.29 | 1.29 | 95 | 1010.1 |
| 20260507181537 | 51 | 48 | 0.9 | 7.8 | 0.09 | 1.29 | 1.29 | 96 | 1010.2 |
| 20260507181506 | 51 | 65 | 1.7 | 7.8 | 0.09 | 1.29 | 1.29 | 95 | 1009.8 |
| 20260507181038 | 51 | 63 | 0.9 | 9.6 | 0.09 | 1.28 | 1.28 | 95 | 1010.3 |
| 20260507181002 | 51 | 41 | 1.7 | 9.6 | 0.09 | 1.28 | 1.28 | 95 | 1009.9 |
| 20260507180535 | 51 | 71 | 0.9 | 9.6 | 0.10 | 1.28 | 1.28 | 95 | 1010.5 |
| 20260507180505 | 52 | 86 | 1.7 | 9.6 | 0.10 | 1.28 | 1.28 | 95 | 1010.0 |
| 20260507180037 | 52 | 118 | 3.5 | 7.8 | 0.09 | 1.27 | 1.27 | 96 | 1010.4 |
| 20260507180007 | 52 | 44 | 4.3 | 7.8 | 0.10 | 1.27 | 1.27 | 95 | 1010.0 |
| 20260507175533 | 52 | 87 | 0.0 | 6.1 | 0.10 | 1.27 | 1.27 | 96 | 1010.8 |
| 20260507175503 | 52 | 86 | 0.9 | 6.1 | 0.10 | 1.27 | 1.27 | 95 | 1010.5 |
| 20260507175034 | 52 | 69 | 1.7 | 7.8 | 0.10 | 1.26 | 1.26 | 96 | 1011.3 |
| 20260507175009 | 52 | 41 | 2.6 | 7.8 | 0.10 | 1.26 | 1.26 | 95 | 1010.7 |
| 20260507174537 | 52 | 50 | 2.6 | 7.8 | 0.10 | 1.26 | 1.26 | 95 | 1011.4 |
| 20260507174509 | 52 | 84 | 2.6 | 7.8 | 0.10 | 1.26 | 1.26 | 95 | 1010.9 |
| 20260507174032 | 52 | 77 | 0.9 | 7.8 | 0.08 | 1.24 | 1.24 | 96 | 1011.7 |
| 20260507174004 | 52 | 68 | 1.7 | 7.8 | 0.08 | 1.24 | 1.24 | 95 | 1011.2 |
| 20260507173532 | 52 | 46 | 0.0 | 3.5 | 0.07 | 1.23 | 1.23 | 96 | 1011.6 |
| 20260507173507 | 52 | 48 | 0.0 | 3.5 | 0.07 | 1.23 | 1.23 | 96 | 1011.1 |
| 20260507173047 | 52 | 79 | 0.0 | 6.1 | 0.07 | 1.22 | 1.22 | 96 | 1011.7 |
| 20260507173022 | 52 | 117 | 0.0 | 6.1 | 0.07 | 1.22 | 1.22 | 96 | 1011.2 |
| 20260507172530 | 52 | 93 | 0.9 | 6.1 | 0.07 | 1.21 | 1.21 | 96 | 1011.8 |
| 20260507172504 | 52 | 9 | 1.7 | 6.1 | 0.07 | 1.21 | 1.21 | 95 | 1011.3 |
| 20260507172031 | 52 | 120 | 0.0 | 7.0 | 0.08 | 1.21 | 1.21 | 96 | 1012.0 |
| 20260507172012 | 52 | 74 | 0.9 | 7.0 | 0.08 | 1.21 | 1.21 | 95 | 1011.4 |
| 20260507171540 | 52 | 81 | 2.6 | 7.0 | 0.09 | 1.20 | 1.20 | 96 | 1012.0 |
| 20260507171508 | 52 | 70 | 2.6 | 7.0 | 0.09 | 1.20 | 1.20 | 96 | 1011.5 |
| 20260507171030 | 52 | 76 | 0.9 | 6.1 | 0.10 | 1.19 | 1.19 | 96 | 1012.1 |
| 20260507171005 | 52 | 83 | 0.9 | 6.1 | 0.10 | 1.19 | 1.19 | 95 | 1011.6 |
| 20260507170530 | 52 | 67 | 0.9 | 6.1 | 0.11 | 1.18 | 1.18 | 96 | 1012.1 |
| 20260507170509 | 52 | 70 | 1.7 | 6.1 | 0.11 | 1.17 | 1.17 | 95 | 1011.6 |
| 20260507170033 | 52 | 88 | 0.9 | 5.2 | 0.13 | 1.18 | 1.18 | 96 | 1011.9 |
| 20260507170010 | 52 | 63 | 0.9 | 5.2 | 0.12 | 1.16 | 1.16 | 95 | 1011.3 |
| 20260507165528 | 52 | 69 | 0.9 | 9.6 | 0.15 | 1.17 | 1.17 | 96 | 1011.9 |
| 20260507165505 | 52 | 74 | 0.9 | 9.6 | 0.15 | 1.16 | 1.16 | 95 | 1011.3 |
| 20260507165029 | 52 | 72 | 0.9 | 9.6 | 0.18 | 1.15 | 1.15 | 95 | 1011.9 |
| 20260507165009 | 52 | 70 | 1.7 | 9.6 | 0.18 | 1.16 | 1.16 | 95 | 1011.3 |
| 20260507164533 | 52 | 71 | 2.6 | 11.3 | 0.23 | 1.15 | 1.15 | 95 | 1012.0 |
| 20260507164514 | 52 | 60 | 2.6 | 11.3 | 0.23 | 1.16 | 1.16 | 95 | 1011.4 |
| 20260507164028 | 52 | 131 | 0.9 | 11.3 | 0.26 | 1.15 | 1.15 | 95 | 1011.9 |
| 20260507164006 | 52 | 81 | 1.7 | 11.3 | 0.26 | 1.16 | 1.16 | 95 | 1011.4 |
| 20260507163528 | 53 | 100 | 0.9 | 11.3 | 0.28 | 1.15 | 1.15 | 96 | 1011.9 |
| 20260507163510 | 53 | 103 | 1.7 | 11.3 | 0.30 | 1.16 | 1.16 | 95 | 1011.4 |
| 20260507163026 | 53 | 293 | 2.6 | 12.2 | 0.32 | 1.14 | 1.14 | 96 | 1012.1 |
| 20260507163011 | 53 | 106 | 3.5 | 12.2 | 0.32 | 1.15 | 1.15 | 95 | 1011.4 |
| 20260507162526 | 53 | 56 | 0.9 | 12.2 | 0.34 | 1.13 | 1.13 | 96 | 1011.7 |
| 20260507162507 | 53 | 60 | 1.7 | 12.2 | 0.34 | 1.14 | 1.14 | 95 | 1011.2 |
| 20260507162026 | 53 | 360 | 0.9 | 5.2 | 0.35 | 1.12 | 1.12 | 96 | 1011.5 |
| 20260507162014 | 53 | 109 | 1.7 | 5.2 | 0.35 | 1.13 | 1.13 | 96 | 1011.0 |
| 20260507161529 | 53 | 108 | 0.9 | 2.6 | 0.36 | 1.11 | 1.11 | 96 | 1011.8 |
| 20260507161521 | 53 | 72 | 0.9 | 3.5 | 0.36 | 1.11 | 1.11 | 95 | 1011.3 |
| 20260507161025 | 53 | 129 | 0.0 | 5.2 | 0.36 | 1.09 | 1.09 | 96 | 1011.9 |
| 20260507161009 | 53 | 139 | 0.0 | 5.2 | 0.37 | 1.09 | 1.09 | 96 | 1011.3 |
| 20260507160525 | 52 | 81 | 0.9 | 7.0 | 0.38 | 1.07 | 1.07 | 96 | 1011.9 |
| 20260507160503 | 52 | 71 | 0.9 | 7.0 | 0.38 | 1.07 | 1.07 | 95 | 1011.4 |
| 20260507160031 | 52 | 91 | 2.6 | 8.7 | 0.39 | 1.05 | 1.05 | 95 | 1011.9 |
| 20260507160018 | 52 | 95 | 3.5 | 8.7 | 0.39 | 1.04 | 1.04 | 95 | 1011.4 |
| 20260507155525 | 53 | 70 | 2.6 | 13.9 | 0.40 | 1.02 | 1.02 | 95 | 1011.8 |
| 20260507155508 | 53 | 352 | 2.6 | 13.9 | 0.41 | 1.02 | 1.02 | 95 | 1011.3 |
| 20260507155023 | 53 | 53 | 6.1 | 13.9 | 0.39 | 0.98 | 0.98 | 95 | 1010.8 |
| 20260507155002 | 53 | 117 | 7.0 | 13.9 | 0.40 | 0.98 | 0.98 | 95 | 1010.6 |
| 20260507154522 | 53 | 77 | 3.5 | 11.3 | 0.35 | 0.93 | 0.93 | 95 | 1011.7 |
| 20260507154519 | 53 | 85 | 4.3 | 11.3 | 0.35 | 0.93 | 0.93 | 95 | 1011.3 |
| 20260507154024 | 53 | 71 | 4.3 | 11.3 | 0.32 | 0.90 | 0.90 | 95 | 1011.6 |
| 20260507154008 | 53 | 249 | 5.2 | 11.3 | 0.32 | 0.90 | 0.90 | 95 | 1011.2 |
| 20260507153520 | 54 | 83 | 2.6 | 10.4 | 0.28 | 0.86 | 0.86 | 95 | 1011.8 |
| 20260507153504 | 54 | 80 | 2.6 | 10.4 | 0.29 | 0.86 | 0.86 | 95 | 1011.3 |
| 20260507153019 | 54 | 76 | 2.6 | 9.6 | 0.26 | 0.83 | 0.83 | 96 | 1011.7 |
| 20260507153017 | 54 | 51 | 2.6 | 9.6 | 0.26 | 0.83 | 0.83 | 95 | 1011.3 |
| 20260507152522 | 54 | 52 | 1.7 | 9.6 | 0.24 | 0.80 | 0.80 | 96 | 1012.0 |
| 20260507152508 | 54 | 55 | 1.7 | 9.6 | 0.24 | 0.80 | 0.80 | 95 | 1011.5 |
| 20260507152017 | 55 | 76 | 0.9 | 7.0 | 0.22 | 0.78 | 0.78 | 96 | 1012.0 |
| 20260507152002 | 55 | 77 | 1.7 | 7.0 | 0.22 | 0.78 | 0.78 | 95 | 1011.6 |
| 20260507151517 | 55 | 86 | 0.0 | 7.0 | 0.19 | 0.75 | 0.75 | 95 | 1011.6 |
| 20260507151015 | 55 | 78 | 1.7 | 6.1 | 0.17 | 0.72 | 0.72 | 96 | 1012.0 |
| 20260507151007 | 55 | 89 | 1.7 | 6.1 | 0.17 | 0.72 | 0.72 | 95 | 1011.5 |
| 20260507150514 | 55 | 55 | 0.9 | 9.6 | 0.14 | 0.69 | 0.69 | 96 | 1012.1 |
| 20260507150507 | 55 | 25 | 1.7 | 9.6 | 0.14 | 0.69 | 0.69 | 95 | 1011.6 |
| 20260507150021 | 56 | 113 | 2.6 | 9.6 | 0.12 | 0.66 | 0.66 | 95 | 1011.4 |
| 20260507150016 | 56 | 109 | 1.7 | 9.6 | 0.12 | 0.66 | 0.66 | 96 | 1011.9 |
| 20260507145514 | 56 | 92 | 0.9 | 3.5 | 0.07 | 0.61 | 0.61 | 96 | 1011.9 |
| 20260507145509 | 56 | 95 | 0.9 | 3.5 | 0.07 | 0.61 | 0.61 | 95 | 1011.5 |
| 20260507145017 | 56 | 74 | 0.9 | 3.5 | 0.05 | 0.57 | 0.57 | 95 | 1012.1 |
| 20260507145004 | 56 | 38 | 0.9 | 3.5 | 0.05 | 0.58 | 0.58 | 95 | 1011.6 |
| 20260507144518 | 57 | 66 | 1.7 | 4.3 | 0.05 | 0.58 | 0.58 | 95 | 1011.4 |
| 20260507144511 | 57 | 76 | 0.9 | 4.3 | 0.05 | 0.57 | 0.57 | 95 | 1011.8 |
| 20260507144011 | 57 | 87 | 0.0 | 5.2 | 0.05 | 0.57 | 0.57 | 96 | 1011.8 |
| 20260507144009 | 57 | 87 | 0.0 | 5.2 | 0.05 | 0.58 | 0.58 | 95 | 1011.4 |
| 20260507143511 | 57 | 99 | 0.9 | 7.0 | 0.04 | 0.56 | 0.56 | 96 | 1011.6 |
| 20260507143502 | 57 | 103 | 1.7 | 7.0 | 0.04 | 0.57 | 0.57 | 95 | 1011.3 |
| 20260507143022 | 57 | 39 | 1.7 | 7.0 | 0.04 | 0.57 | 0.57 | 95 | 1011.2 |
| 20260507143018 | 57 | 45 | 1.7 | 7.0 | 0.04 | 0.56 | 0.56 | 96 | 1011.5 |
| 20260507142508 | 57 | 74 | 0.9 | 8.7 | 0.04 | 0.56 | 0.56 | 96 | 1011.4 |
| 20260507142009 | 57 | 50 | 2.6 | 8.7 | 0.05 | 0.56 | 0.56 | 96 | 1011.5 |
| 20260507142007 | 57 | 65 | 2.6 | 8.7 | 0.05 | 0.56 | 0.56 | 95 | 1011.1 |
| 20260507141523 | 57 | 81 | 1.7 | 13.0 | 0.06 | 0.56 | 0.56 | 95 | 1011.1 |
| 20260507141507 | 57 | 79 | 1.7 | 13.0 | 0.06 | 0.56 | 0.56 | 96 | 1011.5 |
| 20260507141011 | 58 | 75 | 3.5 | 13.0 | 0.06 | 0.55 | 0.55 | 95 | 1011.0 |
| 20260507141007 | 58 | 72 | 2.6 | 13.0 | 0.06 | 0.55 | 0.55 | 96 | 1011.3 |
| 20260507140507 | 58 | 57 | 0.9 | 8.7 | 0.08 | 0.55 | 0.55 | 95 | 1010.9 |
| 20260507140505 | 58 | 54 | 0.0 | 8.7 | 0.08 | 0.55 | 0.55 | 96 | 1011.2 |
| 20260507140024 | 58 | 70 | 1.7 | 6.1 | 0.08 | 0.54 | 0.54 | 95 | 1011.0 |
| 20260507140004 | 58 | 66 | 1.7 | 6.1 | 0.08 | 0.54 | 0.54 | 96 | 1011.3 |
| 20260507135508 | 58 | 77 | 1.7 | 7.0 | 0.09 | 0.54 | 0.54 | 95 | 1011.0 |
| 20260507135503 | 58 | 74 | 1.7 | 7.0 | 0.09 | 0.54 | 0.54 | 96 | 1011.2 |
| 20260507135005 | 59 | 54 | 2.6 | 8.7 | 0.08 | 0.52 | 0.52 | 95 | 1010.9 |
| 20260507135002 | 59 | 43 | 1.7 | 8.7 | 0.08 | 0.53 | 0.53 | 96 | 1011.2 |
| 20260507134529 | 59 | 66 | 1.7 | 8.7 | 0.08 | 0.52 | 0.52 | 95 | 1010.9 |
| 20260507134505 | 59 | 63 | 0.9 | 8.7 | 0.08 | 0.53 | 0.53 | 96 | 1011.1 |
| 20260507134010 | 59 | 62 | 1.7 | 8.7 | 0.08 | 0.52 | 0.52 | 95 | 1011.0 |
| 20260507134001 | 59 | 59 | 0.9 | 8.7 | 0.08 | 0.53 | 0.53 | 96 | 1011.2 |
| 20260507133601 | 59 | 127 | 1.7 | 7.8 | 0.08 | 0.53 | 0.53 | 96 | 1011.2 |
| 20260507133505 | 59 | 73 | 1.7 | 7.8 | 0.08 | 0.52 | 0.52 | 96 | 1011.0 |
| 20260507133106 | 59 | 97 | 1.7 | 7.8 | 0.09 | 0.53 | 0.53 | 96 | 1011.2 |
| 20260507133028 | 59 | 70 | 1.7 | 7.8 | 0.09 | 0.52 | 0.52 | 96 | 1010.8 |
| 20260507132559 | 59 | 31 | 0.0 | 2.6 | 0.08 | 0.52 | 0.52 | 96 | 1011.1 |
| 20260507132507 | 59 | 137 | 0.0 | 1.7 | 0.08 | 0.52 | 0.52 | 96 | 1010.8 |
| 20260507132059 | 59 | 42 | 0.0 | 1.7 | 0.08 | 0.51 | 0.51 | 96 | 1011.1 |
| 20260507132006 | 59 | 45 | 0.0 | 1.7 | 0.08 | 0.51 | 0.51 | 96 | 1010.8 |
| 20260507131600 | 59 | 60 | 0.0 | 1.7 | 0.08 | 0.50 | 0.50 | 96 | 1011.2 |
| 20260507131524 | 59 | 63 | 0.0 | 1.7 | 0.08 | 0.50 | 0.50 | 96 | 1010.9 |
| 20260507131059 | 59 | 30 | 0.0 | 1.7 | 0.09 | 0.49 | 0.49 | 96 | 1011.1 |
| 20260507131004 | 59 | 37 | 0.0 | 2.6 | 0.09 | 0.49 | 0.49 | 95 | 1010.9 |
| 20260507130600 | 59 | 49 | 0.0 | 2.6 | 0.10 | 0.47 | 0.47 | 96 | 1011.3 |
| 20260507130510 | 59 | 57 | 0.0 | 2.6 | 0.10 | 0.47 | 0.47 | 95 | 1011.1 |
| 20260507130059 | 59 | 165 | 0.9 | 7.0 | 0.10 | 0.46 | 0.46 | 96 | 1011.5 |
| 20260507130026 | 59 | 20 | 0.9 | 7.0 | 0.10 | 0.46 | 0.46 | 95 | 1011.3 |
| 20260507125559 | 59 | 329 | 0.0 | 7.0 | 0.10 | 0.45 | 0.45 | 96 | 1011.5 |
| 20260507125504 | 59 | 56 | 0.0 | 7.0 | 0.11 | 0.45 | 0.45 | 95 | 1011.3 |
| 20260507125058 | 59 | 22 | 0.9 | 4.3 | 0.13 | 0.45 | 0.45 | 96 | 1011.6 |
| 20260507125005 | 59 | 17 | 0.9 | 4.3 | 0.13 | 0.45 | 0.45 | 95 | 1011.3 |
| 20260507124558 | 59 | 31 | 0.0 | 4.3 | 0.15 | 0.45 | 0.45 | 96 | 1011.5 |
| 20260507124528 | 59 | 47 | 0.9 | 4.3 | 0.16 | 0.45 | 0.45 | 95 | 1011.2 |
| 20260507124058 | 59 | 29 | 0.0 | 3.5 | 0.17 | 0.45 | 0.45 | 96 | 1011.3 |
| 20260507124003 | 59 | 32 | 0.0 | 3.5 | 0.18 | 0.45 | 0.45 | 95 | 1011.0 |
| 20260507123558 | 60 | 56 | 0.0 | 1.7 | 0.18 | 0.45 | 0.45 | 96 | 1011.3 |
| 20260507123506 | 60 | 38 | 0.0 | 1.7 | 0.19 | 0.45 | 0.45 | 95 | 1011.2 |
| 20260507123057 | 60 | 41 | 0.0 | 1.7 | 0.20 | 0.44 | 0.44 | 96 | 1011.5 |
| 20260507123026 | 60 | 44 | 0.0 | 1.7 | 0.20 | 0.44 | 0.44 | 95 | 1011.2 |
| 20260507122555 | 60 | 36 | 0.0 | 3.5 | 0.22 | 0.44 | 0.44 | 95 | 1011.4 |
| 20260507122503 | 60 | 39 | 0.9 | 3.5 | 0.23 | 0.44 | 0.44 | 95 | 1011.3 |
| 20260507122055 | 60 | 326 | 0.0 | 3.5 | 0.23 | 0.43 | 0.43 | 95 | 1011.7 |
| 20260507122011 | 60 | 260 | 0.0 | 3.5 | 0.24 | 0.43 | 0.43 | 95 | 1011.4 |
| 20260507121555 | 60 | 53 | 0.0 | 1.7 | 0.24 | 0.42 | 0.42 | 95 | 1011.4 |
| 20260507121527 | 60 | 56 | 0.0 | 1.7 | 0.25 | 0.42 | 0.42 | 94 | 1011.1 |
| 20260507121054 | 60 | 44 | 0.0 | 5.2 | 0.27 | 0.40 | 0.40 | 95 | 1011.5 |
| 20260507121007 | 60 | 55 | 0.0 | 5.2 | 0.29 | 0.40 | 0.40 | 94 | 1011.2 |
| 20260507120553 | 61 | 294 | 0.0 | 5.2 | 0.27 | 0.37 | 0.37 | 94 | 1011.6 |
| 20260507120510 | 61 | 30 | 0.9 | 5.2 | 0.28 | 0.37 | 0.37 | 94 | 1011.3 |
| 20260507120028 | 62 | 32 | 0.9 | 4.3 | 0.27 | 0.36 | 0.36 | 93 | 1010.9 |
| 20260507115550 | 63 | 46 | 0.0 | 3.5 | 0.26 | 0.34 | 0.34 | 93 | 1011.2 |
| 20260507115503 | 64 | 60 | 0.9 | 3.5 | 0.26 | 0.34 | 0.34 | 93 | 1010.8 |
| 20260507115052 | 65 | 112 | 0.0 | 4.3 | 0.24 | 0.32 | 0.32 | 96 | 1011.0 |
| 20260507115010 | 65 | 14 | 0.0 | 4.3 | 0.24 | 0.32 | 0.32 | 95 | 1010.8 |
| 20260507114548 | 65 | 313 | 0.0 | 4.3 | 0.22 | 0.30 | 0.30 | 96 | 1011.1 |
| 20260507114528 | 65 | 322 | 0.0 | 4.3 | 0.21 | 0.29 | 0.29 | 95 | 1010.7 |
| 20260507114050 | 65 | 308 | 1.7 | 3.5 | 0.20 | 0.27 | 0.27 | 96 | 1011.0 |
| 20260507114006 | 65 | 302 | 1.7 | 3.5 | 0.20 | 0.27 | 0.27 | 95 | 1010.7 |
| 20260507113547 | 65 | 279 | 1.7 | 3.5 | 0.20 | 0.27 | 0.27 | 96 | 1010.8 |
| 20260507113506 | 65 | 300 | 2.6 | 3.5 | 0.19 | 0.26 | 0.26 | 95 | 1010.5 |
| 20260507113052 | 65 | 303 | 0.0 | 3.5 | 0.18 | 0.24 | 0.24 | 96 | 1010.7 |
| 20260507113030 | 65 | 299 | 0.0 | 3.5 | 0.19 | 0.24 | 0.24 | 95 | 1010.4 |
| 20260507112547 | 65 | 314 | 0.9 | 3.5 | 0.17 | 0.21 | 0.21 | 96 | 1010.8 |
| 20260507112506 | 65 | 317 | 0.0 | 3.5 | 0.18 | 0.21 | 0.21 | 95 | 1010.6 |
| 20260507112046 | 65 | 296 | 1.7 | 3.5 | 0.17 | 0.19 | 0.19 | 95 | 1010.8 |
| 20260507112011 | 65 | 340 | 1.7 | 3.5 | 0.17 | 0.19 | 0.19 | 95 | 1010.6 |
| 20260507111547 | 65 | 313 | 1.7 | 3.5 | 0.16 | 0.17 | 0.17 | 95 | 1010.8 |
| 20260507111539 | 65 | 307 | 1.7 | 3.5 | 0.16 | 0.17 | 0.17 | 95 | 1010.6 |
| 20260507111045 | 66 | 313 | 1.7 | 3.5 | 0.11 | 0.12 | 0.12 | 95 | 1010.9 |
| 20260507111008 | 66 | 324 | 2.6 | 3.5 | 0.10 | 0.11 | 0.11 | 95 | 1010.6 |
| 20260507110544 | 66 | 302 | 0.0 | 5.2 | 0.09 | 0.10 | 0.10 | 95 | 1010.7 |
| 20260507110508 | 66 | 284 | 0.0 | 5.2 | 0.08 | 0.09 | 0.09 | 94 | 1010.4 |
| 20260507110045 | 66 | 290 | 1.7 | 5.2 | 0.08 | 0.09 | 0.09 | 95 | 1010.7 |
| 20260507110030 | 66 | 297 | 1.7 | 5.2 | 0.08 | 0.09 | 0.09 | 94 | 1010.5 |
| 20260507105646 | 66 | 299 | 0.9 | 5.2 | 0.07 | 0.08 | 0.08 | 95 | 1010.8 |
| 20260507105506 | 66 | 317 | 1.7 | 5.2 | 0.07 | 0.08 | 0.08 | 94 | 1010.5 |
| 20260507105042 | 66 | 302 | 1.7 | 5.2 | 0.07 | 0.08 | 0.08 | 94 | 1010.8 |
| 20260507105011 | 66 | 314 | 1.7 | 4.3 | 0.07 | 0.08 | 0.08 | 94 | 1010.6 |
| 20260507104542 | 66 | 297 | 1.7 | 7.0 | 0.07 | 0.08 | 0.08 | 94 | 1010.6 |
| 20260507104527 | 66 | 314 | 1.7 | 7.0 | 0.07 | 0.08 | 0.08 | 93 | 1010.3 |
| 20260507104042 | 66 | 297 | 2.6 | 7.0 | 0.06 | 0.07 | 0.07 | 94 | 1010.6 |
| 20260507104007 | 66 | 278 | 2.6 | 7.0 | 0.06 | 0.07 | 0.07 | 93 | 1010.3 |
| 20260507103541 | 66 | 332 | 1.7 | 5.2 | 0.06 | 0.07 | 0.07 | 93 | 1010.6 |
| 20260507103508 | 66 | 284 | 1.7 | 5.2 | 0.06 | 0.07 | 0.07 | 93 | 1010.3 |
| 20260507103042 | 67 | 313 | 0.9 | 6.1 | 0.04 | 0.05 | 0.05 | 93 | 1010.6 |
| 20260507103035 | 67 | 281 | 1.7 | 6.1 | 0.04 | 0.05 | 0.05 | 92 | 1010.4 |
| 20260507102539 | 67 | 290 | 2.6 | 7.0 | 0.03 | 0.04 | 0.04 | 92 | 1010.7 |
| 20260507102507 | 67 | 300 | 3.5 | 7.0 | 0.02 | 0.03 | 0.03 | 91 | 1010.4 |
| 20260507102040 | 67 | 303 | 3.5 | 7.0 | 0.01 | 0.02 | 0.02 | 91 | 1010.4 |
| 20260507102014 | 67 | 297 | 5.2 | 7.0 | 0.01 | 0.02 | 0.02 | 91 | 1010.2 |
| 20260507101537 | 67 | 320 | 1.7 | 5.2 | 0.00 | 0.01 | 0.01 | 91 | 1010.1 |
| 20260507101515 | 67 | 347 | 2.6 | 5.2 | 0.00 | 0.01 | 0.01 | 90 | 1009.9 |
| 20260507101037 | 67 | 274 | 0.9 | 5.2 | 0.00 | 0.01 | 0.01 | 90 | 1009.9 |
| 20260507101008 | 67 | 304 | 0.9 | 6.1 | 0.00 | 0.01 | 0.01 | 90 | 1009.7 |
| 20260507100540 | 68 | 287 | 0.9 | 7.0 | 0.00 | 0.01 | 0.01 | 90 | 1009.7 |
| 20260507100507 | 68 | 240 | 1.7 | 7.0 | 0.00 | 0.01 | 0.01 | 90 | 1009.5 |
| 20260507100039 | 68 | 214 | 1.7 | 7.0 | 0.00 | 0.01 | 0.01 | 90 | 1009.6 |
| 20260507100019 | 68 | 314 | 1.7 | 7.0 | 0.00 | 0.01 | 0.01 | 89 | 1009.5 |
| 20260507095535 | 68 | 222 | 0.9 | 8.7 | 0.00 | 0.01 | 0.01 | 89 | 1009.6 |
| 20260507095508 | 68 | 280 | 1.7 | 8.7 | 0.00 | 0.01 | 0.01 | 89 | 1009.4 |
| 20260507095034 | 68 | 211 | 2.6 | 8.7 | 0.00 | 0.01 | 0.01 | 89 | 1009.6 |
| 20260507095011 | 68 | 328 | 2.6 | 8.7 | 0.00 | 0.01 | 0.01 | 89 | 1009.4 |
| 20260507094535 | 68 | 327 | 0.9 | 5.2 | 0.00 | 0.01 | 0.01 | 89 | 1009.4 |
| 20260507094516 | 68 | 287 | 1.7 | 5.2 | 0.00 | 0.01 | 0.01 | 89 | 1009.3 |
| 20260507094034 | 68 | 252 | 1.7 | 4.3 | 0.00 | 0.01 | 0.01 | 89 | 1009.3 |
| 20260507094007 | 68 | 316 | 1.7 | 4.3 | 0.00 | 0.01 | 0.01 | 88 | 1009.2 |
| 20260507093534 | 68 | 266 | 0.9 | 4.3 | 0.00 | 0.01 | 0.01 | 89 | 1009.2 |
| 20260507093512 | 68 | 268 | 1.7 | 4.3 | 0.00 | 0.01 | 0.01 | 88 | 1009.2 |
| 20260507093036 | 68 | 224 | 0.0 | 5.2 | 0.00 | 0.01 | 0.01 | 89 | 1009.3 |
| 20260507093021 | 68 | 272 | 0.9 | 5.2 | 0.00 | 0.01 | 0.01 | 88 | 1009.2 |
| 20260507092533 | 68 | 298 | 1.7 | 5.2 | 0.00 | 0.01 | 0.01 | 88 | 1009.4 |
| 20260507092508 | 68 | 297 | 1.7 | 5.2 | 0.00 | 0.01 | 0.01 | 88 | 1009.3 |
| 20260507092032 | 68 | 253 | 0.0 | 7.0 | 0.00 | 0.01 | 0.01 | 88 | 1009.3 |
| 20260507092014 | 68 | 278 | 0.0 | 7.0 | 0.00 | 0.01 | 0.01 | 88 | 1009.2 |
| 20260507091532 | 68 | 310 | 1.7 | 7.0 | 0.00 | 0.01 | 0.01 | 88 | 1009.6 |
| 20260507091525 | 68 | 317 | 1.7 | 7.0 | 0.00 | 0.01 | 0.01 | 88 | 1009.5 |
| 20260507091032 | 68 | 301 | 1.7 | 5.2 | 0.00 | 0.01 | 0.01 | 88 | 1009.7 |
| 20260507091014 | 68 | 302 | 2.6 | 5.2 | 0.00 | 0.01 | 0.01 | 88 | 1009.5 |
| 20260507090531 | 68 | 248 | 1.7 | 6.1 | 0.00 | 0.01 | 0.01 | 88 | 1009.7 |
| 20260507090512 | 68 | 288 | 1.7 | 6.1 | 0.00 | 0.01 | 0.01 | 87 | 1009.5 |
| 20260507090031 | 68 | 287 | 0.0 | 6.1 | 0.00 | 0.01 | 0.01 | 88 | 1009.7 |
| 20260507090022 | 68 | 247 | 0.9 | 6.1 | 0.00 | 0.01 | 0.01 | 87 | 1009.5 |
| 20260507085531 | 68 | 306 | 1.7 | 5.2 | 0.00 | 0.01 | 0.01 | 87 | 1009.8 |
| 20260507085503 | 68 | 263 | 1.7 | 5.2 | 0.00 | 0.01 | 0.01 | 87 | 1009.6 |
| 20260507085032 | 68 | 300 | 2.6 | 5.2 | 0.00 | 0.01 | 0.01 | 87 | 1010.0 |
| 20260507085004 | 68 | 330 | 2.6 | 4.3 | 0.00 | 0.01 | 0.01 | 87 | 1009.8 |
| 20260507084532 | 68 | 159 | 0.9 | 5.2 | 0.00 | 0.01 | 0.01 | 87 | 1010.0 |
| 20260507084528 | 68 | 277 | 1.7 | 5.2 | 0.00 | 0.01 | 0.01 | 86 | 1009.8 |
| 20260507084031 | 69 | 310 | 0.9 | 5.2 | 0.00 | 0.01 | 0.01 | 86 | 1010.0 |
| 20260507084003 | 69 | 308 | 1.7 | 6.1 | 0.00 | 0.01 | 0.01 | 86 | 1009.8 |
| 20260507083531 | 69 | 266 | 1.7 | 6.1 | 0.00 | 0.01 | 0.01 | 86 | 1010.2 |
| 20260507083504 | 69 | 244 | 2.6 | 6.1 | 0.00 | 0.01 | 0.01 | 86 | 1010.0 |
| 20260507083031 | 69 | 314 | 2.6 | 6.1 | 0.00 | 0.01 | 0.01 | 86 | 1010.3 |
| 20260507083022 | 69 | 297 | 2.6 | 6.1 | 0.00 | 0.01 | 0.01 | 85 | 1010.1 |
| 20260507082529 | 69 | 220 | 0.0 | 7.8 | 0.00 | 0.01 | 0.01 | 86 | 1010.2 |
| 20260507082503 | 69 | 246 | 0.9 | 7.8 | 0.00 | 0.01 | 0.01 | 85 | 1009.9 |
| 20260507082033 | 69 | 262 | 3.5 | 7.8 | 0.00 | 0.01 | 0.01 | 86 | 1010.4 |
| 20260507082008 | 69 | 301 | 3.5 | 7.8 | 0.00 | 0.01 | 0.01 | 85 | 1010.1 |
| 20260507081536 | 69 | 302 | 1.7 | 6.1 | 0.00 | 0.01 | 0.01 | 86 | 1010.4 |
| 20260507081526 | 69 | 287 | 1.7 | 6.1 | 0.00 | 0.01 | 0.01 | 85 | 1010.2 |
| 20260507081030 | 69 | 299 | 1.7 | 7.0 | 0.00 | 0.01 | 0.01 | 86 | 1010.5 |
| 20260507081004 | 69 | 319 | 1.7 | 7.0 | 0.00 | 0.01 | 0.01 | 85 | 1010.2 |
| 20260507080530 | 69 | 300 | 1.7 | 7.0 | 0.00 | 0.01 | 0.01 | 86 | 1010.5 |
| 20260507080506 | 69 | 324 | 2.6 | 7.0 | 0.00 | 0.01 | 0.01 | 85 | 1010.2 |
| 20260507080031 | 69 | 235 | 0.9 | 5.2 | 0.00 | 0.01 | 0.01 | 86 | 1010.5 |
| 20260507080025 | 69 | 222 | 1.7 | 5.2 | 0.00 | 0.01 | 0.01 | 85 | 1010.2 |
| 20260507075529 | 69 | 224 | 1.7 | 5.2 | 0.00 | 0.01 | 0.01 | 86 | 1010.6 |
| 20260507075502 | 69 | 285 | 2.6 | 5.2 | 0.00 | 0.01 | 0.01 | 85 | 1010.4 |
| 20260507075029 | 69 | 323 | 0.9 | 5.2 | 0.00 | 0.01 | 0.01 | 86 | 1010.7 |
| 20260507075009 | 69 | 292 | 1.7 | 5.2 | 0.00 | 0.01 | 0.01 | 86 | 1010.5 |
| 20260507074533 | 69 | 213 | 0.9 | 4.3 | 0.00 | 0.01 | 0.01 | 86 | 1010.8 |
| 20260507074526 | 69 | 252 | 1.7 | 5.2 | 0.00 | 0.01 | 0.01 | 86 | 1010.6 |
| 20260507074031 | 68 | 253 | 0.9 | 5.2 | 0.00 | 0.01 | 0.01 | 86 | 1010.8 |
| 20260507074004 | 68 | 308 | 1.7 | 5.2 | 0.00 | 0.01 | 0.01 | 86 | 1010.6 |
| 20260507073529 | 68 | 198 | 1.7 | 5.2 | 0.00 | 0.01 | 0.01 | 86 | 1010.7 |
| 20260507073506 | 68 | 226 | 1.7 | 5.2 | 0.00 | 0.01 | 0.01 | 86 | 1010.4 |
| 20260507073029 | 68 | 256 | 0.0 | 5.2 | 0.01 | 0.01 | 0.01 | 87 | 1010.5 |
| 20260507073008 | 68 | 245 | 0.9 | 5.2 | 0.01 | 0.01 | 0.01 | 86 | 1010.3 |
| 20260507072528 | 68 | 252 | 0.9 | 5.2 | 0.01 | 0.01 | 0.01 | 87 | 1010.8 |
| 20260507072504 | 68 | 245 | 1.7 | 5.2 | 0.01 | 0.01 | 0.01 | 86 | 1010.5 |
| 20260507072027 | 68 | 285 | 1.7 | 7.0 | 0.01 | 0.01 | 0.01 | 87 | 1010.6 |
| 20260507072004 | 68 | 273 | 1.7 | 7.0 | 0.01 | 0.01 | 0.01 | 86 | 1010.3 |
| 20260507071533 | 68 | 319 | 1.7 | 7.0 | 0.01 | 0.01 | 0.01 | 87 | 1010.6 |
| 20260507071505 | 68 | 255 | 1.7 | 7.0 | 0.01 | 0.01 | 0.01 | 87 | 1010.3 |
| 20260507071028 | 68 | 244 | 0.9 | 4.3 | 0.01 | 0.01 | 0.01 | 87 | 1010.4 |
| 20260507071007 | 68 | 221 | 0.9 | 4.3 | 0.01 | 0.01 | 0.01 | 87 | 1010.1 |
| 20260507070528 | 68 | 320 | 0.9 | 5.2 | 0.01 | 0.01 | 0.01 | 87 | 1010.4 |
| 20260507070508 | 68 | 342 | 1.7 | 5.2 | 0.01 | 0.01 | 0.01 | 87 | 1010.2 |
| 20260507070030 | 68 | 292 | 2.6 | 5.2 | 0.01 | 0.01 | 0.01 | 87 | 1010.4 |
| 20260507070011 | 68 | 290 | 2.6 | 5.2 | 0.01 | 0.01 | 0.01 | 87 | 1010.3 |
| 20260507065527 | 68 | 285 | 0.9 | 3.5 | 0.01 | 0.01 | 0.01 | 87 | 1010.4 |
| 20260507065505 | 68 | 300 | 0.9 | 3.5 | 0.01 | 0.01 | 0.01 | 87 | 1010.1 |
| 20260507065027 | 68 | 252 | 0.9 | 3.5 | 0.01 | 0.01 | 0.01 | 87 | 1009.9 |
| 20260507065009 | 68 | 255 | 0.9 | 3.5 | 0.01 | 0.01 | 0.01 | 87 | 1009.8 |
| 20260507064534 | 68 | 263 | 0.0 | 2.6 | 0.01 | 0.01 | 0.01 | 87 | 1009.8 |
| 20260507064506 | 68 | 296 | 0.9 | 3.5 | 0.01 | 0.01 | 0.01 | 86 | 1009.7 |
| 20260507064027 | 68 | 293 | 0.9 | 3.5 | 0.01 | 0.01 | 0.01 | 87 | 1010.0 |
| 20260507064003 | 68 | 295 | 0.9 | 3.5 | 0.01 | 0.01 | 0.01 | 86 | 1009.8 |
| 20260507063526 | 68 | 139 | 0.9 | 5.2 | 0.01 | 0.01 | 0.01 | 86 | 1010.0 |
| 20260507063508 | 68 | 267 | 0.9 | 5.2 | 0.01 | 0.01 | 0.01 | 86 | 1009.8 |
| 20260507063026 | 68 | 136 | 0.0 | 5.2 | 0.00 | 0.00 | 0.00 | 85 | 1009.3 |
| 20260507063006 | 68 | 136 | 0.0 | 5.2 | 0.00 | 0.00 | 0.00 | 85 | 1009.3 |
| 20260507062526 | 68 | 160 | 0.0 | 4.3 | 0.00 | 0.00 | 0.00 | 85 | 1010.3 |
| 20260507062507 | 68 | 245 | 0.9 | 4.3 | 0.00 | 0.00 | 0.00 | 85 | 1010.1 |
| 20260507062022 | 68 | 253 | 0.9 | 4.3 | 0.00 | 0.00 | 0.00 | 85 | 1010.6 |
| 20260507062011 | 68 | 224 | 0.9 | 4.3 | 0.00 | 0.00 | 0.00 | 85 | 1010.4 |
| 20260507061530 | 69 | 262 | 0.0 | 5.2 | 0.00 | 0.00 | 0.00 | 85 | 1011.1 |
| 20260507061508 | 68 | 248 | 0.9 | 5.2 | 0.00 | 0.00 | 0.00 | 85 | 1010.8 |
| 20260507061021 | 69 | 213 | 0.9 | 5.2 | 0.00 | 0.00 | 0.00 | 85 | 1011.3 |
| 20260507061007 | 69 | 297 | 1.7 | 5.2 | 0.00 | 0.00 | 0.00 | 84 | 1011.1 |
| 20260507060519 | 69 | 185 | 0.9 | 5.2 | 0.00 | 0.00 | 0.00 | 85 | 1011.3 |
| 20260507060508 | 69 | 194 | 0.9 | 5.2 | 0.00 | 0.00 | 0.00 | 84 | 1011.1 |
| 20260507060018 | 69 | 239 | 1.7 | 5.2 | 0.00 | 0.00 | 0.00 | 84 | 1011.3 |
| 20260507060010 | 69 | 228 | 1.7 | 5.2 | 0.00 | 0.00 | 0.00 | 83 | 1011.1 |
| 20260507055518 | 69 | 239 | 1.7 | 5.2 | 0.00 | 0.00 | 0.00 | 83 | 1011.3 |
| 20260507055505 | 69 | 278 | 1.7 | 5.2 | 0.00 | 0.00 | 0.00 | 82 | 1011.1 |
| 20260507055017 | 70 | 257 | 1.7 | 6.1 | 0.00 | 0.00 | 0.00 | 82 | 1011.4 |
| 20260507055012 | 70 | 290 | 1.7 | 6.1 | 0.00 | 0.00 | 0.00 | 82 | 1011.1 |
| 20260507054520 | 70 | 248 | 0.9 | 6.1 | 0.00 | 0.00 | 0.00 | 81 | 1011.4 |
| 20260507054508 | 70 | 290 | 0.9 | 6.1 | 0.00 | 0.00 | 0.00 | 81 | 1011.2 |
| 20260507054016 | 70 | 209 | 1.7 | 5.2 | 0.00 | 0.00 | 0.00 | 80 | 1011.5 |
| 20260507054005 | 70 | 271 | 2.6 | 5.2 | 0.00 | 0.00 | 0.00 | 79 | 1011.2 |
| 20260507053515 | 70 | 256 | 1.7 | 6.1 | 0.00 | 0.00 | 0.00 | 79 | 1011.4 |
| 20260507053511 | 70 | 228 | 2.6 | 6.1 | 0.00 | 0.00 | 0.00 | 78 | 1011.2 |
| 20260507053021 | 71 | 240 | 1.7 | 6.1 | 0.00 | 0.00 | 0.00 | 78 | 1011.5 |
| 20260507053010 | 71 | 268 | 2.6 | 6.1 | 0.00 | 0.00 | 0.00 | 78 | 1011.4 |
| 20260507052513 | 71 | 294 | 0.9 | 5.2 | 0.00 | 0.00 | 0.00 | 77 | 1011.6 |
| 20260507052506 | 71 | 248 | 1.7 | 5.2 | 0.00 | 0.00 | 0.00 | 77 | 1011.3 |
| 20260507052013 | 71 | 261 | 1.7 | 6.1 | 0.00 | 0.00 | 0.00 | 76 | 1011.6 |
| 20260507051511 | 71 | 9 | 0.9 | 6.1 | 0.00 | 0.00 | 0.00 | 76 | 1011.6 |
| 20260507051508 | 71 | 12 | 1.7 | 6.1 | 0.00 | 0.00 | 0.00 | 76 | 1011.4 |
| 20260507051009 | 71 | 233 | 0.9 | 5.2 | 0.00 | 0.00 | 0.00 | 75 | 1011.6 |
| 20260507050512 | 71 | 344 | 1.7 | 6.1 | 0.00 | 0.00 | 0.00 | 75 | 1011.5 |
| 20260507050508 | 71 | 331 | 1.7 | 6.1 | 0.00 | 0.00 | 0.00 | 74 | 1011.3 |
| 20260507050010 | 71 | 214 | 2.6 | 6.1 | 0.00 | 0.00 | 0.00 | 74 | 1011.4 |
| 20260507045548 | 71 | 258 | 0.9 | 5.2 | 0.00 | 0.00 | 0.00 | 74 | 1011.3 |
| 20260507045506 | 71 | 169 | 0.9 | 5.2 | 0.00 | 0.00 | 0.00 | 74 | 1011.0 |
| 20260507045048 | 71 | 250 | 0.9 | 4.3 | 0.00 | 0.00 | 0.00 | 74 | 1011.2 |
| 20260507045011 | 71 | 248 | 0.9 | 4.3 | 0.00 | 0.00 | 0.00 | 74 | 1011.0 |
| 20260507044550 | 71 | 228 | 0.9 | 6.1 | 0.00 | 0.00 | 0.00 | 74 | 1011.3 |
| 20260507044533 | 71 | 183 | 0.9 | 6.1 | 0.00 | 0.00 | 0.00 | 73 | 1011.0 |
| 20260507044047 | 71 | 203 | 0.9 | 6.1 | 0.00 | 0.00 | 0.00 | 74 | 1011.4 |
| 20260507044009 | 71 | 143 | 1.7 | 6.1 | 0.00 | 0.00 | 0.00 | 73 | 1011.1 |
| 20260507043547 | 71 | 215 | 0.0 | 4.3 | 0.00 | 0.00 | 0.00 | 74 | 1011.4 |
| 20260507043503 | 71 | 245 | 0.9 | 4.3 | 0.00 | 0.00 | 0.00 | 73 | 1011.1 |
| 20260507043049 | 71 | 254 | 0.9 | 5.2 | 0.00 | 0.00 | 0.00 | 74 | 1011.4 |
| 20260507043014 | 71 | 257 | 1.7 | 5.2 | 0.00 | 0.00 | 0.00 | 73 | 1011.1 |
| 20260507042547 | 71 | 278 | 0.9 | 5.2 | 0.00 | 0.00 | 0.00 | 73 | 1011.5 |
| 20260507042507 | 71 | 328 | 1.7 | 5.2 | 0.00 | 0.00 | 0.00 | 73 | 1011.3 |
| 20260507042048 | 71 | 267 | 1.7 | 5.2 | 0.00 | 0.00 | 0.00 | 74 | 1011.6 |
| 20260507042004 | 71 | 256 | 1.7 | 5.2 | 0.00 | 0.00 | 0.00 | 73 | 1011.3 |
| 20260507041547 | 71 | 211 | 1.7 | 7.0 | 0.00 | 0.00 | 0.00 | 74 | 1011.6 |
| 20260507041518 | 71 | 263 | 2.6 | 7.0 | 0.00 | 0.00 | 0.00 | 73 | 1011.3 |
| 20260507041047 | 71 | 230 | 2.6 | 7.0 | 0.00 | 0.00 | 0.00 | 74 | 1011.4 |
| 20260507041007 | 71 | 202 | 2.6 | 7.0 | 0.00 | 0.00 | 0.00 | 73 | 1011.2 |
| 20260507040545 | 71 | 180 | 1.7 | 5.2 | 0.00 | 0.00 | 0.00 | 74 | 1011.3 |
| 20260507040503 | 71 | 229 | 1.7 | 5.2 | 0.00 | 0.00 | 0.00 | 74 | 1011.1 |
| 20260507040142 | 71 | 237 | 0.9 | 5.2 | 0.00 | 0.00 | 0.00 | 75 | 1011.4 |
| 20260507040018 | 71 | 242 | 1.7 | 5.2 | 0.00 | 0.00 | 0.00 | 74 | 1011.1 |
| 20260507035543 | 71 | 150 | 0.9 | 5.2 | 0.00 | 0.00 | 0.00 | 75 | 1011.2 |
| 20260507035507 | 71 | 229 | 1.7 | 5.2 | 0.00 | 0.00 | 0.00 | 74 | 1011.0 |
| 20260507035142 | 72 | 173 | 1.7 | 4.3 | 0.00 | 0.00 | 0.00 | 75 | 1011.1 |
| 20260507035003 | 72 | 236 | 1.7 | 4.3 | 0.00 | 0.00 | 0.00 | 74 | 1010.7 |
| 20260507034554 | 72 | 188 | 0.9 | 4.3 | 0.00 | 0.00 | 0.00 | 75 | 1011.0 |
| 20260507034520 | 72 | 231 | 0.9 | 4.3 | 0.00 | 0.00 | 0.00 | 75 | 1010.7 |
| 20260507034040 | 72 | 145 | 0.9 | 4.3 | 0.00 | 0.00 | 0.00 | 75 | 1011.0 |
| 20260507034006 | 72 | 203 | 0.9 | 4.3 | 0.00 | 0.00 | 0.00 | 74 | 1010.8 |
| 20260507033540 | 72 | 237 | 0.9 | 3.5 | 0.00 | 0.00 | 0.00 | 75 | 1011.0 |
| 20260507033503 | 72 | 250 | 0.9 | 3.5 | 0.00 | 0.00 | 0.00 | 74 | 1010.8 |
| 20260507033057 | 72 | 249 | 0.0 | 3.5 | 0.00 | 0.00 | 0.00 | 75 | 1011.0 |
| 20260507033020 | 72 | 233 | 0.9 | 3.5 | 0.00 | 0.00 | 0.00 | 75 | 1010.7 |
| 20260507032542 | 72 | 263 | 0.0 | 3.5 | 0.00 | 0.00 | 0.00 | 75 | 1010.8 |
| 20260507032508 | 72 | 133 | 0.0 | 3.5 | 0.00 | 0.00 | 0.00 | 74 | 1010.4 |
| 20260507032039 | 72 | 237 | 0.0 | 4.3 | 0.00 | 0.00 | 0.00 | 75 | 1010.9 |
| 20260507032005 | 72 | 255 | 0.0 | 4.3 | 0.00 | 0.00 | 0.00 | 74 | 1010.6 |
| 20260507031539 | 72 | 246 | 0.9 | 4.3 | 0.00 | 0.00 | 0.00 | 74 | 1011.2 |
| 20260507031521 | 73 | 139 | 1.7 | 4.3 | 0.00 | 0.00 | 0.00 | 74 | 1011.0 |
| 20260507031039 | 73 | 276 | 0.9 | 2.6 | 0.00 | 0.00 | 0.00 | 74 | 1011.3 |
| 20260507031007 | 73 | 168 | 0.9 | 3.5 | 0.00 | 0.00 | 0.00 | 73 | 1011.1 |
| 20260507030543 | 73 | 105 | 0.0 | 3.5 | 0.00 | 0.00 | 0.00 | 74 | 1011.1 |
| 20260507030505 | 73 | 263 | 0.0 | 3.5 | 0.00 | 0.00 | 0.00 | 73 | 1011.0 |
| 20260507030039 | 73 | 294 | 0.9 | 3.5 | 0.00 | 0.00 | 0.00 | 74 | 1011.1 |
| 20260507030023 | 73 | 278 | 1.7 | 3.5 | 0.00 | 0.00 | 0.00 | 73 | 1010.8 |
| 20260507025538 | 73 | 297 | 0.9 | 3.5 | 0.00 | 0.00 | 0.00 | 74 | 1011.1 |
| 20260507025508 | 73 | 296 | 0.9 | 3.5 | 0.00 | 0.00 | 0.00 | 74 | 1010.9 |
| 20260507025038 | 73 | 230 | 1.7 | 3.5 | 0.00 | 0.00 | 0.00 | 75 | 1011.2 |
| 20260507025006 | 73 | 309 | 1.7 | 3.5 | 0.00 | 0.00 | 0.00 | 74 | 1010.9 |
| 20260507024550 | 73 | 268 | 0.9 | 3.5 | 0.00 | 0.00 | 0.00 | 75 | 1011.5 |
| 20260507024524 | 73 | 334 | 0.9 | 3.5 | 0.00 | 0.00 | 0.00 | 75 | 1011.1 |
| 20260507024041 | 73 | 273 | 0.9 | 3.5 | 0.00 | 0.00 | 0.00 | 75 | 1011.5 |
| 20260507024009 | 73 | 217 | 0.9 | 3.5 | 0.00 | 0.00 | 0.00 | 75 | 1011.2 |
| 20260507023540 | 73 | 242 | 0.0 | 4.3 | 0.00 | 0.00 | 0.00 | 75 | 1011.7 |
| 20260507023504 | 73 | 283 | 0.0 | 4.3 | 0.00 | 0.00 | 0.00 | 75 | 1011.4 |
| 20260507023037 | 73 | 228 | 0.0 | 4.3 | 0.00 | 0.00 | 0.00 | 75 | 1011.7 |
| 20260507023025 | 73 | 235 | 0.9 | 4.3 | 0.00 | 0.00 | 0.00 | 75 | 1011.4 |
| 20260507022537 | 73 | 163 | 0.0 | 2.6 | 0.00 | 0.00 | 0.00 | 75 | 1011.8 |
| 20260507022513 | 74 | 237 | 0.0 | 2.6 | 0.00 | 0.00 | 0.00 | 75 | 1011.4 |
| 20260507022037 | 74 | 255 | 0.9 | 4.3 | 0.00 | 0.00 | 0.00 | 75 | 1011.8 |
| 20260507022006 | 74 | 233 | 0.9 | 4.3 | 0.00 | 0.00 | 0.00 | 75 | 1011.4 |
| 20260507021537 | 74 | 222 | 0.0 | 4.3 | 0.00 | 0.00 | 0.00 | 75 | 1011.7 |
| 20260507021529 | 74 | 208 | 0.9 | 4.3 | 0.00 | 0.00 | 0.00 | 75 | 1011.3 |
| 20260507021041 | 74 | 149 | 0.0 | 2.6 | 0.00 | 0.00 | 0.00 | 75 | 1011.5 |
| 20260507021014 | 74 | 178 | 0.0 | 2.6 | 0.00 | 0.00 | 0.00 | 75 | 1011.2 |
| 20260507020537 | 74 | 204 | 0.9 | 2.6 | 0.00 | 0.00 | 0.00 | 75 | 1011.7 |
| 20260507020508 | 74 | 255 | 0.9 | 2.6 | 0.00 | 0.00 | 0.00 | 75 | 1011.3 |
| 20260507020038 | 74 | 211 | 0.0 | 2.6 | 0.00 | 0.00 | 0.00 | 75 | 1011.8 |
| 20260507020035 | 74 | 233 | 0.9 | 2.6 | 0.00 | 0.00 | 0.00 | 75 | 1011.4 |
| 20260507015535 | 74 | 197 | 0.9 | 2.6 | 0.00 | 0.00 | 0.00 | 75 | 1011.8 |
| 20260507015511 | 74 | 230 | 0.9 | 2.6 | 0.00 | 0.00 | 0.00 | 75 | 1011.5 |
| 20260507015039 | 74 | 255 | 0.0 | 2.6 | 0.00 | 0.00 | 0.00 | 75 | 1011.9 |
| 20260507015004 | 74 | 250 | 0.0 | 2.6 | 0.00 | 0.00 | 0.00 | 74 | 1011.5 |
| 20260507014636 | 74 | 218 | 0.0 | 2.6 | 0.00 | 0.00 | 0.00 | 74 | 1011.9 |
| 20260507014529 | 74 | 262 | 0.0 | 2.6 | 0.00 | 0.00 | 0.00 | 74 | 1011.4 |
| 20260507014035 | 74 | 247 | 0.0 | 1.7 | 0.00 | 0.00 | 0.00 | 73 | 1011.8 |
| 20260507014004 | 74 | 236 | 0.0 | 1.7 | 0.00 | 0.00 | 0.00 | 73 | 1011.3 |
| 20260507013535 | 74 | 233 | 0.0 | 1.7 | 0.00 | 0.00 | 0.00 | 72 | 1011.6 |
| 20260507013507 | 74 | 226 | 0.0 | 1.7 | 0.00 | 0.00 | 0.00 | 72 | 1011.3 |
| 20260507013038 | 74 | 231 | 0.9 | 2.6 | 0.00 | 0.00 | 0.00 | 72 | 1011.6 |
| 20260507013031 | 74 | 264 | 0.9 | 2.6 | 0.00 | 0.00 | 0.00 | 71 | 1011.2 |
| 20260507012535 | 74 | 242 | 0.0 | 2.6 | 0.00 | 0.00 | 0.00 | 70 | 1011.7 |
| 20260507012505 | 75 | 214 | 0.0 | 2.6 | 0.00 | 0.00 | 0.00 | 69 | 1011.3 |
| 20260507012035 | 75 | 181 | 0.0 | 2.6 | 0.00 | 0.00 | 0.00 | 69 | 1011.7 |
| 20260507012006 | 75 | 200 | 0.9 | 2.6 | 0.00 | 0.00 | 0.00 | 69 | 1011.3 |
| 20260507011537 | 75 | 212 | 0.0 | 1.7 | 0.00 | 0.00 | 0.00 | 69 | 1011.7 |
| 20260507011526 | 75 | 243 | 0.0 | 1.7 | 0.00 | 0.00 | 0.00 | 68 | 1011.3 |
| 20260507011034 | 75 | 163 | 0.0 | 3.5 | 0.00 | 0.00 | 0.00 | 69 | 1011.7 |
| 20260507011002 | 75 | 269 | 0.0 | 3.5 | 0.00 | 0.00 | 0.00 | 68 | 1011.4 |
| 20260507010534 | 75 | 221 | 0.0 | 3.5 | 0.00 | 0.00 | 0.00 | 68 | 1011.7 |
| 20260507010507 | 75 | 231 | 0.9 | 3.5 | 0.00 | 0.00 | 0.00 | 68 | 1011.4 |
| 20260507010038 | 75 | 220 | 0.9 | 3.5 | 0.00 | 0.00 | 0.00 | 68 | 1011.7 |
| 20260507010006 | 75 | 252 | 1.7 | 3.5 | 0.00 | 0.00 | 0.00 | 68 | 1011.4 |
| 20260507005532 | 75 | 231 | 0.0 | 4.3 | 0.00 | 0.00 | 0.00 | 68 | 1011.7 |
| 20260507005508 | 75 | 233 | 0.9 | 4.3 | 0.00 | 0.00 | 0.00 | 68 | 1011.3 |
| 20260507005032 | 75 | 216 | 1.7 | 4.3 | 0.00 | 0.00 | 0.00 | 68 | 1011.7 |
| 20260507005009 | 75 | 231 | 1.7 | 4.3 | 0.00 | 0.00 | 0.00 | 67 | 1011.3 |
| 20260507004532 | 75 | 171 | 0.0 | 2.6 | 0.00 | 0.00 | 0.00 | 68 | 1011.7 |
| 20260507004507 | 75 | 251 | 0.9 | 2.6 | 0.00 | 0.00 | 0.00 | 67 | 1011.3 |
| 20260507004033 | 75 | 182 | 0.0 | 1.7 | 0.00 | 0.00 | 0.00 | 67 | 1011.5 |
| 20260507004005 | 75 | 188 | 0.0 | 1.7 | 0.00 | 0.00 | 0.00 | 66 | 1011.1 |
| 20260507003533 | 75 | 177 | 0.0 | 1.7 | 0.00 | 0.00 | 0.00 | 66 | 1011.4 |
| 20260507003509 | 75 | 181 | 0.0 | 1.7 | 0.00 | 0.00 | 0.00 | 66 | 1011.1 |
| 20260507003032 | 76 | 210 | 0.0 | 2.6 | 0.00 | 0.00 | 0.00 | 66 | 1011.4 |
| 20260507003015 | 76 | 207 | 0.0 | 2.6 | 0.00 | 0.00 | 0.00 | 66 | 1011.0 |
| 20260507002532 | 76 | 247 | 0.0 | 3.5 | 0.00 | 0.00 | 0.00 | 66 | 1011.4 |
| 20260507002505 | 76 | 212 | 0.9 | 3.5 | 0.00 | 0.00 | 0.00 | 65 | 1011.0 |
| 20260507002032 | 76 | 226 | 0.0 | 3.5 | 0.00 | 0.00 | 0.00 | 66 | 1011.3 |
| 20260507002012 | 76 | 234 | 0.9 | 3.5 | 0.00 | 0.00 | 0.00 | 65 | 1010.9 |
| 20260507001544 | 76 | 236 | 0.0 | 4.3 | 0.00 | 0.00 | 0.00 | 66 | 1011.1 |
| 20260507001518 | 76 | 216 | 0.9 | 4.3 | 0.00 | 0.00 | 0.00 | 65 | 1010.8 |
| 20260507001032 | 76 | 123 | 0.0 | 4.3 | 0.00 | 0.00 | 0.00 | 65 | 1011.1 |
| 20260507001003 | 76 | 238 | 0.9 | 4.3 | 0.00 | 0.00 | 0.00 | 65 | 1010.8 |
| 20260507000531 | 76 | 202 | 0.0 | 2.6 | 0.00 | 0.00 | 0.00 | 65 | 1010.9 |
| 20260507000513 | 76 | 221 | 0.9 | 2.6 | 0.00 | 0.00 | 0.00 | 65 | 1010.7 |
| 20260507000032 | 76 | 221 | 0.0 | 1.7 | 0.00 | 0.00 | 0.00 | 65 | 1011.0 |
| 20260507000013 | 76 | 247 | 0.0 | 3.5 | 0.00 | 0.00 | 0.00 | 64 | 1010.8 |
| 20260506235531 | 76 | 252 | 0.0 | 3.5 | 0.00 | 0.00 | 0.00 | 65 | 1011.0 |
| 20260506235507 | 76 | 245 | 0.0 | 3.5 | 0.00 | 0.00 | 0.00 | 64 | 1010.8 |
| 20260506235030 | 76 | 323 | 0.0 | 3.5 | 0.00 | 0.00 | 0.00 | 65 | 1011.1 |
| 20260506235008 | 76 | 310 | 0.0 | 5.2 | 0.00 | 0.00 | 0.00 | 64 | 1010.8 |
| 20260506234545 | 77 | 271 | 0.9 | 6.1 | 0.00 | 0.00 | 0.00 | 64 | 1011.0 |
| 20260506234511 | 77 | 261 | 0.9 | 6.1 | 0.00 | 0.00 | 0.00 | 64 | 1010.7 |
| 20260506234031 | 77 | 234 | 1.7 | 6.1 | 0.00 | 0.00 | 0.00 | 64 | 1010.8 |
| 20260506234007 | 77 | 245 | 1.7 | 6.1 | 0.00 | 0.00 | 0.00 | 63 | 1010.6 |
| 20260506233530 | 77 | 241 | 1.7 | 6.1 | 0.00 | 0.00 | 0.00 | 63 | 1010.7 |
| 20260506233508 | 77 | 245 | 1.7 | 6.1 | 0.00 | 0.00 | 0.00 | 63 | 1010.4 |
| 20260506233029 | 77 | 242 | 0.0 | 3.5 | 0.00 | 0.00 | 0.00 | 63 | 1010.7 |
| 20260506233010 | 77 | 117 | 0.9 | 3.5 | 0.00 | 0.00 | 0.00 | 63 | 1010.4 |
| 20260506232530 | 77 | 244 | 0.9 | 4.3 | 0.00 | 0.00 | 0.00 | 63 | 1010.7 |
| 20260506232505 | 77 | 269 | 1.7 | 4.3 | 0.00 | 0.00 | 0.00 | 63 | 1010.4 |
| 20260506232032 | 77 | 218 | 0.9 | 5.2 | 0.00 | 0.00 | 0.00 | 63 | 1010.7 |
| 20260506232010 | 77 | 214 | 0.9 | 5.2 | 0.00 | 0.00 | 0.00 | 63 | 1010.5 |
| 20260506231535 | 77 | 317 | 0.9 | 5.2 | 0.00 | 0.00 | 0.00 | 63 | 1010.7 |
| 20260506231513 | 77 | 321 | 1.7 | 5.2 | 0.00 | 0.00 | 0.00 | 62 | 1010.4 |
| 20260506231030 | 78 | 219 | 1.7 | 6.1 | 0.00 | 0.00 | 0.00 | 62 | 1010.6 |
| 20260506231006 | 78 | 242 | 1.7 | 7.0 | 0.00 | 0.00 | 0.00 | 62 | 1010.3 |
| 20260506230529 | 78 | 252 | 0.9 | 7.0 | 0.00 | 0.00 | 0.00 | 62 | 1010.5 |
| 20260506230507 | 78 | 264 | 1.7 | 7.0 | 0.00 | 0.00 | 0.00 | 62 | 1010.1 |
| 20260506230029 | 78 | 223 | 1.7 | 7.0 | 0.00 | 0.00 | 0.00 | 62 | 1010.5 |
| 20260506230012 | 78 | 205 | 1.7 | 7.0 | 0.00 | 0.00 | 0.00 | 61 | 1010.2 |
| 20260506225531 | 78 | 235 | 1.7 | 7.8 | 0.00 | 0.00 | 0.00 | 62 | 1010.5 |
| 20260506225507 | 78 | 289 | 1.7 | 7.8 | 0.00 | 0.00 | 0.00 | 61 | 1010.2 |
| 20260506225028 | 78 | 228 | 2.6 | 7.8 | 0.00 | 0.00 | 0.00 | 61 | 1010.5 |
| 20260506225003 | 78 | 201 | 1.7 | 7.8 | 0.00 | 0.00 | 0.00 | 61 | 1010.3 |
| 20260506224530 | 78 | 213 | 1.7 | 7.8 | 0.00 | 0.00 | 0.00 | 62 | 1010.4 |
| 20260506224512 | 78 | 310 | 2.6 | 7.8 | 0.00 | 0.00 | 0.00 | 61 | 1010.2 |
| 20260506224128 | 78 | 294 | 1.7 | 9.6 | 0.00 | 0.00 | 0.00 | 61 | 1010.5 |
| 20260506224010 | 78 | 236 | 1.7 | 9.6 | 0.00 | 0.00 | 0.00 | 61 | 1010.2 |
| 20260506223527 | 79 | 243 | 2.6 | 9.6 | 0.00 | 0.00 | 0.00 | 61 | 1010.5 |
| 20260506223503 | 79 | 298 | 2.6 | 9.6 | 0.00 | 0.00 | 0.00 | 61 | 1010.3 |
| 20260506223031 | 79 | 228 | 1.7 | 7.0 | 0.00 | 0.00 | 0.00 | 61 | 1010.5 |
| 20260506223015 | 79 | 290 | 2.6 | 7.0 | 0.00 | 0.00 | 0.00 | 61 | 1010.2 |
| 20260506222528 | 79 | 237 | 3.5 | 7.0 | 0.00 | 0.00 | 0.00 | 61 | 1010.4 |
| 20260506222513 | 79 | 264 | 3.5 | 9.6 | 0.00 | 0.00 | 0.00 | 61 | 1010.2 |
| 20260506222029 | 79 | 209 | 1.7 | 9.6 | 0.00 | 0.00 | 0.00 | 62 | 1010.4 |
| 20260506222006 | 79 | 242 | 1.7 | 9.6 | 0.00 | 0.00 | 0.00 | 61 | 1010.2 |
| 20260506221527 | 79 | 308 | 2.6 | 9.6 | 0.00 | 0.00 | 0.00 | 62 | 1010.5 |
| 20260506221515 | 79 | 259 | 1.7 | 7.0 | 0.00 | 0.00 | 0.00 | 62 | 1010.3 |
| 20260506221027 | 79 | 201 | 0.9 | 7.0 | 0.00 | 0.00 | 0.00 | 63 | 1010.5 |
| 20260506221006 | 79 | 215 | 1.7 | 7.0 | 0.00 | 0.00 | 0.00 | 62 | 1010.3 |
| 20260506220527 | 79 | 254 | 2.6 | 8.7 | 0.00 | 0.00 | 0.00 | 62 | 1010.5 |
| 20260506220504 | 79 | 270 | 2.6 | 8.7 | 0.00 | 0.00 | 0.00 | 62 | 1010.3 |
| 20260506220034 | 79 | 249 | 1.7 | 8.7 | 0.00 | 0.00 | 0.00 | 62 | 1010.3 |
| 20260506220020 | 79 | 318 | 2.6 | 8.7 | 0.00 | 0.00 | 0.00 | 62 | 1010.2 |
| 20260506215526 | 79 | 122 | 2.6 | 7.0 | 0.00 | 0.00 | 0.00 | 62 | 1010.2 |
| 20260506215507 | 79 | 276 | 1.7 | 7.0 | 0.00 | 0.00 | 0.00 | 62 | 1010.1 |
| 20260506215026 | 79 | 230 | 2.6 | 7.0 | 0.00 | 0.00 | 0.00 | 62 | 1010.5 |
| 20260506215005 | 79 | 224 | 3.5 | 7.0 | 0.00 | 0.00 | 0.00 | 62 | 1010.4 |
| 20260506214527 | 79 | 244 | 1.7 | 9.6 | 0.00 | 0.00 | 0.00 | 63 | 1010.3 |
| 20260506214519 | 79 | 290 | 1.7 | 9.6 | 0.00 | 0.00 | 0.00 | 62 | 1010.2 |
| 20260506214028 | 79 | 260 | 2.6 | 9.6 | 0.00 | 0.00 | 0.00 | 62 | 1010.1 |
| 20260506214012 | 79 | 274 | 2.6 | 10.4 | 0.00 | 0.00 | 0.00 | 62 | 1010.2 |
| 20260506213525 | 79 | 123 | 1.7 | 10.4 | 0.00 | 0.00 | 0.00 | 62 | 1010.1 |
| 20260506213504 | 79 | 140 | 1.7 | 10.4 | 0.00 | 0.00 | 0.00 | 62 | 1009.8 |
| 20260506213025 | 79 | 258 | 4.3 | 10.4 | 0.00 | 0.00 | 0.00 | 62 | 1009.9 |
| 20260506213018 | 79 | 182 | 4.3 | 10.4 | 0.00 | 0.00 | 0.00 | 62 | 1009.8 |
| 20260506212527 | 79 | 216 | 1.7 | 11.3 | 0.00 | 0.00 | 0.00 | 62 | 1009.9 |
| 20260506212507 | 79 | 244 | 2.6 | 11.3 | 0.00 | 0.00 | 0.00 | 62 | 1009.8 |
| 20260506212025 | 79 | 192 | 2.6 | 11.3 | 0.00 | 0.00 | 0.00 | 62 | 1009.9 |
| 20260506212011 | 79 | 252 | 3.5 | 13.9 | 0.00 | 0.00 | 0.00 | 61 | 1009.8 |
| 20260506211524 | 79 | 346 | 1.7 | 13.9 | 0.00 | 0.00 | 0.00 | 62 | 1010.2 |
| 20260506211522 | 79 | 194 | 2.6 | 13.9 | 0.00 | 0.00 | 0.00 | 61 | 1010.0 |
| 20260506211023 | 79 | 240 | 5.2 | 13.9 | 0.00 | 0.00 | 0.00 | 61 | 1010.2 |
| 20260506211008 | 79 | 276 | 6.1 | 13.9 | 0.00 | 0.00 | 0.00 | 61 | 1010.3 |
| 20260506210522 | 79 | 242 | 4.3 | 13.0 | 0.00 | 0.00 | 0.00 | 62 | 1010.5 |
| 20260506210502 | 79 | 198 | 4.3 | 13.0 | 0.00 | 0.00 | 0.00 | 62 | 1010.4 |
| 20260506210023 | 79 | 121 | 2.6 | 13.0 | 0.00 | 0.00 | 0.00 | 63 | 1010.4 |
| 20260506205522 | 79 | 138 | 3.5 | 11.3 | 0.00 | 0.00 | 0.00 | 63 | 1010.4 |
| 20260506205511 | 78 | 272 | 3.5 | 11.3 | 0.00 | 0.00 | 0.00 | 63 | 1010.3 |
| 20260506205022 | 78 | 285 | 3.5 | 11.3 | 0.00 | 0.00 | 0.00 | 63 | 1010.5 |
| 20260506205007 | 78 | 280 | 3.5 | 11.3 | 0.00 | 0.00 | 0.00 | 63 | 1010.4 |
| 20260506204522 | 78 | 252 | 3.5 | 10.4 | 0.00 | 0.00 | 0.00 | 63 | 1010.6 |
| 20260506204019 | 78 | 218 | 2.6 | 11.3 | 0.00 | 0.00 | 0.00 | 63 | 1010.7 |
| 20260506204008 | 78 | 190 | 2.6 | 11.3 | 0.00 | 0.00 | 0.00 | 63 | 1010.7 |
| 20260506203519 | 78 | 245 | 3.5 | 12.2 | 0.00 | 0.00 | 0.00 | 62 | 1010.9 |
| 20260506203504 | 78 | 256 | 3.5 | 12.2 | 0.00 | 0.00 | 0.00 | 62 | 1010.7 |
| 20260506203028 | 78 | 296 | 6.1 | 12.2 | 0.00 | 0.00 | 0.00 | 61 | 1010.8 |
| 20260506203018 | 78 | 292 | 5.2 | 12.2 | 0.00 | 0.00 | 0.00 | 62 | 1011.1 |
| 20260506202520 | 79 | 250 | 6.1 | 12.2 | 0.00 | 0.00 | 0.00 | 62 | 1011.3 |
| 20260506202509 | 79 | 294 | 6.1 | 12.2 | 0.00 | 0.00 | 0.00 | 61 | 1011.0 |
| 20260506202017 | 79 | 225 | 5.2 | 12.2 | 0.00 | 0.00 | 0.00 | 62 | 1011.4 |
| 20260506202009 | 79 | 247 | 5.2 | 12.2 | 0.00 | 0.00 | 0.00 | 61 | 1011.1 |
| 20260506201525 | 79 | 95 | 3.5 | 14.8 | 0.00 | 0.00 | 0.00 | 62 | 1011.2 |
| 20260506201517 | 79 | 288 | 2.6 | 14.8 | 0.00 | 0.00 | 0.00 | 62 | 1011.4 |
| 20260506201015 | 79 | 246 | 7.8 | 14.8 | 0.00 | 0.00 | 0.00 | 62 | 1011.7 |
| 20260506201010 | 79 | 284 | 7.8 | 14.8 | 0.00 | 0.00 | 0.00 | 61 | 1011.3 |
| 20260506200515 | 79 | 211 | 4.3 | 10.4 | 0.00 | 0.00 | 0.00 | 63 | 1011.7 |
| 20260506200510 | 79 | 248 | 4.3 | 10.4 | 0.00 | 0.00 | 0.00 | 63 | 1011.3 |
| 20260506200030 | 79 | 233 | 4.3 | 13.0 | 0.00 | 0.00 | 0.00 | 64 | 1011.4 |
| 20260506200015 | 79 | 249 | 4.3 | 13.0 | 0.00 | 0.00 | 0.00 | 64 | 1011.7 |
| 20260506195514 | 79 | 216 | 6.1 | 13.9 | 0.00 | 0.00 | 0.00 | 63 | 1011.7 |
| 20260506195507 | 79 | 267 | 5.2 | 13.9 | 0.00 | 0.00 | 0.00 | 63 | 1011.5 |
| 20260506195015 | 79 | 183 | 6.1 | 13.9 | 0.00 | 0.00 | 0.00 | 64 | 1011.9 |
| 20260506195008 | 79 | 129 | 7.0 | 13.9 | 0.00 | 0.00 | 0.00 | 64 | 1011.7 |
| 20260506194527 | 79 | 254 | 3.5 | 8.7 | 0.00 | 0.00 | 0.00 | 65 | 1011.7 |
| 20260506194513 | 79 | 175 | 3.5 | 8.7 | 0.00 | 0.00 | 0.00 | 66 | 1012.0 |
| 20260506194015 | 78 | 245 | 2.6 | 8.7 | 0.00 | 0.00 | 0.00 | 66 | 1012.1 |
| 20260506194006 | 78 | 293 | 2.6 | 8.7 | 0.00 | 0.00 | 0.00 | 65 | 1011.8 |
| 20260506193511 | 78 | 285 | 3.5 | 8.7 | 0.00 | 0.00 | 0.00 | 67 | 1012.1 |
| 20260506193507 | 78 | 298 | 4.3 | 8.7 | 0.00 | 0.00 | 0.00 | 66 | 1011.8 |
| 20260506193028 | 78 | 96 | 3.5 | 8.7 | 0.00 | 0.00 | 0.00 | 66 | 1011.8 |
| 20260506193011 | 78 | 312 | 2.6 | 8.7 | 0.00 | 0.00 | 0.00 | 67 | 1011.9 |
| 20260506192510 | 78 | 226 | 1.7 | 8.7 | 0.00 | 0.00 | 0.00 | 67 | 1012.0 |
| 20260506192503 | 78 | 233 | 2.6 | 8.7 | 0.00 | 0.00 | 0.00 | 66 | 1011.8 |
| 20260506192010 | 78 | 171 | 2.6 | 8.7 | 0.00 | 0.00 | 0.00 | 67 | 1012.1 |
| 20260506192008 | 78 | 150 | 3.5 | 8.7 | 0.00 | 0.00 | 0.00 | 66 | 1011.8 |
| 20260506191534 | 78 | 213 | 2.6 | 7.8 | 0.00 | 0.00 | 0.00 | 67 | 1011.8 |
| 20260506191509 | 78 | 231 | 2.6 | 7.8 | 0.00 | 0.00 | 0.00 | 68 | 1012.0 |
| 20260506191009 | 77 | 169 | 1.7 | 7.0 | 0.00 | 0.00 | 0.00 | 68 | 1012.1 |
| 20260506191004 | 77 | 284 | 1.7 | 7.0 | 0.00 | 0.00 | 0.00 | 67 | 1011.8 |
| 20260506190510 | 77 | 209 | 2.6 | 10.4 | 0.00 | 0.00 | 0.00 | 68 | 1012.2 |
| 20260506190508 | 77 | 208 | 3.5 | 10.4 | 0.00 | 0.00 | 0.00 | 67 | 1012.0 |
| 20260506190030 | 77 | 311 | 3.5 | 10.4 | 0.00 | 0.00 | 0.00 | 67 | 1012.1 |
| 20260506190007 | 77 | 211 | 2.6 | 10.4 | 0.00 | 0.00 | 0.00 | 68 | 1012.2 |
| 20260506185505 | 77 | 269 | 4.3 | 9.6 | 0.00 | 0.00 | 0.00 | 67 | 1012.5 |
| 20260506185503 | 77 | 241 | 4.3 | 9.6 | 0.00 | 0.00 | 0.00 | 66 | 1012.2 |
| 20260506185012 | 77 | 261 | 4.3 | 9.6 | 0.00 | 0.00 | 0.00 | 66 | 1012.2 |
| 20260506185006 | 77 | 278 | 4.3 | 9.6 | 0.00 | 0.00 | 0.00 | 67 | 1012.5 |
| 20260506184532 | 77 | 117 | 3.5 | 11.3 | 0.00 | 0.00 | 0.00 | 66 | 1012.2 |
| 20260506184505 | 77 | 133 | 3.5 | 11.3 | 0.00 | 0.00 | 0.00 | 66 | 1012.5 |
| 20260506184007 | 77 | 280 | 5.2 | 11.3 | 0.00 | 0.00 | 0.00 | 66 | 1012.2 |
| 20260506184005 | 77 | 244 | 4.3 | 11.3 | 0.00 | 0.00 | 0.00 | 66 | 1012.5 |